[[{"header":{"parameterUnit":"m.s-1","parameterCategory":1,"la1":30.2991,"la2":30.254,"lo1":-89.0895,"lo2":-89.0444,"dy":0.0017,"dx":0.0017,"nx":28,"ny":28,"refTime":"2025-05-19T03:00:00:Z","depth":0,"parameterNumber":2,"parameterNumberName":"U-component_of_WINDS"},"data":[0,0,0,0,0,0,0,0,0,0,0,0,0,0,0,0,0,0,0,0,0,0,0,0,0,0,0,0,0,0,0,0,0,0,0,0,0,0,0,0,0,0,0,0,0,0,0,0,0,0,0,0,0,0,0,0,0,0,-0.4301,-0.4302,0,-0.4344,-0.4344,-0.4345,-0.4362,-0.4362,-0.4362,-0.4362,-0.4407,-0.4409,-0.441,0,0,0,0,0,0,0,0,0,0,0,0,0,-0.4238,-0.4239,-0.4301,-0.4302,-0.4302,-0.4344,-0.4344,-0.4345,-0.4362,-0.4362,-0.4362,-0.4362,-0.4407,-0.4408,-0.441,0,0,0,0,0,0,0,0,0,0,0,0,0,-0.4272,-0.424,-0.4301,-0.4316,-0.4317,-0.4343,-0.4344,-0.4345,-0.4362,-0.4362,-0.4362,-0.4361,-0.4406,-0.4408,-0.441,-0.4425,0,0,-0.4416,-0.4417,0,0,0,0,0,0,0,0,-0.427,-0.4274,-0.4313,-0.4315,-0.4317,-0.4347,-0.4339,-0.4372,-0.4362,-0.4345,-0.4362,-0.4361,-0.4388,-0.4391,-0.4399,-0.4428,-0.4429,-0.4416,-0.4418,-0.4418,-0.4419,0,0,0,0,0,0,0,-0.4267,-0.4272,-0.4318,-0.4314,-0.4316,-0.4321,-0.4326,-0.4345,-0.4367,-0.4347,-0.4348,-0.4353,-0.4389,-0.4397,-0.4401,-0.443,-0.4416,-0.4418,-0.4419,-0.442,-0.4475,-0.4475,0,0,0,0,0,0,-0.4262,-0.427,-0.4317,-0.4319,-0.4292,-0.4322,-0.4328,-0.4338,-0.4367,-0.4371,-0.4353,-0.4353,-0.4394,-0.4398,-0.4402,-0.4423,-0.4418,-0.442,-0.4421,-0.4474,-0.4475,-0.4475,0,0,0,0,0,0,-0.4261,-0.4266,-0.4315,-0.4295,-0.4302,-0.4324,-0.4335,-0.4339,-0.4347,-0.4371,-0.4375,-0.4358,-0.4394,-0.44,-0.442,-0.4425,-0.4421,-0.4423,-0.4474,-0.4474,-0.4475,-0.4464,0,0,0,0,0,0,-0.4259,-0.4266,-0.4271,-0.4295,-0.4303,-0.4331,-0.4335,-0.434,-0.4351,-0.4352,-0.4377,-0.4381,-0.4395,-0.4417,-0.4422,-0.4427,-0.4424,-0.4474,-0.4474,-0.4475,-0.4464,-0.4464,-0.4464,0,0,0,0,0,-0.4257,-0.4266,-0.4271,-0.4276,-0.4309,-0.4331,-0.4335,-0.435,-0.4351,-0.4357,-0.4372,-0.438,-0.4423,-0.4419,-0.4424,-0.4431,-0.4473,-0.4474,-0.4475,-0.4464,-0.4464,-0.4464,0,0,0,0,0,0,-0.4242,-0.427,-0.4275,-0.4293,-0.4309,-0.4334,-0.4342,-0.4349,-0.4367,-0.4367,-0.4386,-0.4391,-0.441,-0.4423,-0.4417,-0.4448,-0.4449,-0.4451,-0.4439,-0.4439,-0.4439,-0.4436,-0.4426,0,0,0,0,0,-0.4241,-0.4255,-0.4279,-0.4292,-0.43,-0.4319,-0.4329,-0.4339,-0.4358,-0.4365,-0.4382,-0.44,-0.4418,-0.4429,-0.4447,-0.4466,-0.4472,-0.4473,-0.4473,-0.4473,-0.4474,-0.4487,-0.4488,-0.4477,-0.4477,-0.4477,0,0,-0.4239,-0.4256,-0.4264,-0.429,-0.4304,-0.4319,-0.4325,-0.4341,-0.4353,-0.4368,-0.4388,-0.4401,-0.4422,-0.4442,-0.4452,-0.4453,-0.4479,-0.4474,-0.4473,-0.4475,-0.4488,-0.4489,-0.449,-0.4477,-0.4477,-0.4477,0,0,-0.4243,-0.4257,-0.427,-0.4284,-0.4305,-0.4318,-0.4321,-0.4345,-0.4354,-0.4374,-0.4386,-0.4401,-0.4431,-0.4446,-0.4458,-0.4469,-0.4477,-0.4474,-0.4474,-0.4486,-0.4487,-0.4488,-0.4493,-0.4494,-0.4475,-0.4475,-0.4475,0,-0.4238,-0.4261,-0.4276,-0.4291,-0.4303,-0.4316,-0.433,-0.4344,-0.437,-0.4378,-0.4379,-0.4417,-0.4433,-0.4457,-0.446,-0.4469,-0.4474,-0.4471,-0.4485,-0.4486,-0.4487,-0.4493,-0.4494,-0.4475,-0.4475,-0.4475,-0.4475,0,-0.4254,-0.427,-0.4278,-0.4302,-0.4315,-0.433,-0.4348,-0.4359,-0.4368,-0.4382,-0.4403,-0.4422,-0.4444,-0.4451,-0.446,-0.4477,-0.4477,-0.4482,-0.4483,-0.4488,-0.4493,-0.4495,-0.4474,-0.4474,-0.4475,-0.4475,0,0,-0.425,-0.4283,-0.4286,-0.4297,-0.4322,-0.4335,-0.4351,-0.4372,-0.4382,-0.44,-0.4415,-0.444,-0.4445,-0.4458,-0.4469,-0.448,-0.4489,-0.4483,-0.4484,-0.4484,-0.451,-0.4507,-0.4509,-0.4494,-0.4495,-0.4495,-0.4509,0,-0.4258,-0.4286,-0.43,-0.4323,-0.4338,-0.4352,-0.4366,-0.4384,-0.4397,-0.4413,-0.4428,-0.4446,-0.445,-0.4458,-0.4469,-0.4485,-0.4494,-0.4484,-0.4509,-0.451,-0.4504,-0.4512,-0.4509,-0.452,-0.4511,-0.4511,-0.4511,0,-0.427,-0.4288,-0.4312,-0.4336,-0.4343,-0.4355,-0.4377,-0.4391,-0.4412,-0.4421,-0.4436,-0.4447,-0.4466,-0.4466,-0.4493,-0.4486,-0.4498,-0.4507,-0.4508,-0.4512,-0.4511,-0.4516,-0.4524,-0.4527,-0.4514,-0.4514,-0.4514,0,-0.4266,-0.4295,-0.4314,-0.4323,-0.4352,-0.436,-0.4373,-0.4393,-0.4406,-0.4425,-0.4433,-0.4454,-0.4466,-0.4483,-0.45,-0.4498,-0.4526,-0.4527,-0.4535,-0.4535,-0.454,-0.454,-0.4551,-0.4546,-0.4546,-0.4546,-0.4546,0,-0.4274,-0.4288,-0.4312,-0.4324,-0.4341,-0.4358,-0.4375,-0.4388,-0.4407,-0.4422,-0.4435,-0.4449,-0.4471,-0.4488,-0.4502,-0.4523,-0.4528,-0.4537,-0.454,-0.4536,-0.4535,-0.4544,-0.4544,-0.4547,-0.4547,-0.4547,-0.4546,0,-0.4271,-0.4288,-0.4309,-0.4334,-0.4341,-0.4353,-0.4375,-0.4388,-0.4402,-0.4421,-0.4426,-0.4449,-0.447,-0.4489,-0.4517,-0.4527,-0.4548,-0.4552,-0.4541,-0.4543,-0.4551,-0.455,-0.4569,-0.4573,-0.4564,-0.4564,-0.4564,0,-0.4275,-0.4286,-0.4313,-0.4324,-0.4336,-0.4353,-0.4366,-0.4384,-0.4397,-0.4422,-0.4432,-0.4454,-0.4473,-0.4506,-0.4526,-0.4548,-0.4553,-0.4558,-0.4557,-0.4552,-0.4555,-0.4554,-0.4556,-0.4558,-0.4558,-0.4558,-0.4558,0,-0.4281,-0.4289,-0.4306,-0.4327,-0.4341,-0.4359,-0.4376,-0.4385,-0.4406,-0.4421,-0.4442,-0.4457,-0.4486,-0.4508,-0.4533,-0.4547,-0.4557,-0.4559,-0.4562,-0.4558,-0.4551,-0.4556,-0.4542,-0.4558,-0.4558,-0.4558,-0.4558,-0.4558,-0.4282,-0.4293,-0.4314,-0.4333,-0.4349,-0.4365,-0.4378,-0.4394,-0.4413,-0.4437,-0.4447,-0.447,-0.4492,-0.4526,-0.454,-0.4559,-0.456,-0.4565,-0.4566,-0.4567,-0.4567,-0.4548,-0.4563,-0.4563,-0.4563,-0.4563,-0.4563,0,-0.4289,-0.4303,-0.4321,-0.4345,-0.4361,-0.4368,-0.4389,-0.4402,-0.4421,-0.444,-0.4459,-0.4485,-0.4507,-0.4528,-0.4552,-0.4563,-0.4568,-0.4569,-0.4569,-0.4572,-0.4563,-0.4559,-0.4564,-0.4564,-0.4564,-0.4564,-0.4564,-0.4564,-0.4294,-0.4314,-0.4325,-0.4353,-0.4368,-0.4389,-0.44,-0.4417,-0.4432,-0.446,-0.4479,-0.4492,-0.4513,-0.4539,-0.456,-0.4566,-0.4575,-0.4574,-0.4581,-0.4573,-0.4572,-0.4572,-0.4568,-0.4575,-0.4575,-0.4589,-0.4589,-0.4589]},{"header":{"parameterUnit":"m.s-1","parameterCategory":1,"la1":30.2991,"la2":30.254,"lo1":-89.0895,"lo2":-89.0444,"dy":0.0017,"dx":0.0017,"nx":28,"ny":28,"refTime":"2025-05-19T03:00:00:Z","depth":0,"parameterNumber":3,"parameterNumberName":"V-component_of_WINDS"},"data":[0,0,0,0,0,0,0,0,0,0,0,0,0,0,0,0,0,0,0,0,0,0,0,0,0,0,0,0,0,0,0,0,0,0,0,0,0,0,0,0,0,0,0,0,0,0,0,0,0,0,0,0,0,0,0,0,0,0,6.2527,6.2527,0,6.2549,6.2549,6.255,6.2474,6.2472,6.2469,6.2467,6.2487,6.249,6.2492,0,0,0,0,0,0,0,0,0,0,0,0,0,6.2415,6.2417,6.2527,6.2527,6.2527,6.2549,6.2549,6.255,6.2474,6.2472,6.2469,6.2466,6.2486,6.2489,6.2492,0,0,0,0,0,0,0,0,0,0,0,0,0,6.2453,6.2418,6.2527,6.2492,6.249,6.2549,6.2549,6.255,6.2475,6.2471,6.2468,6.2465,6.2485,6.2489,6.2493,6.2586,0,0,6.2505,6.2507,0,0,0,0,0,0,0,0,6.2451,6.2457,6.2497,6.2495,6.2492,6.2505,6.2517,6.2562,6.2476,6.248,6.2467,6.2463,6.2496,6.2499,6.251,6.2587,6.2587,6.2505,6.2508,6.2509,6.2511,0,0,0,0,0,0,0,6.2448,6.2456,6.2535,6.2498,6.2495,6.2475,6.2476,6.2525,6.2507,6.248,6.2474,6.2478,6.2493,6.2507,6.251,6.2588,6.2505,6.2509,6.2511,6.2513,6.274,6.2744,0,0,0,0,0,0,6.2451,6.2454,6.2535,6.2536,6.2463,6.2479,6.2481,6.2504,6.2506,6.2503,6.2481,6.2475,6.2501,6.2505,6.251,6.2618,6.2509,6.2513,6.2515,6.2737,6.2741,6.2745,0,0,0,0,0,0,6.2449,6.2459,6.2534,6.2494,6.2502,6.2485,6.2512,6.2507,6.2519,6.2507,6.2503,6.2498,6.2499,6.2505,6.2567,6.2618,6.2515,6.2519,6.2732,6.2738,6.2743,6.2835,0,0,0,0,0,0,6.2446,6.2458,6.2494,6.2495,6.2504,6.2592,6.2515,6.251,6.2527,6.2519,6.2522,6.2519,6.2497,6.2562,6.2571,6.2621,6.2522,6.2728,6.2735,6.2741,6.2828,6.2843,6.2857,0,0,0,0,0,6.2442,6.2519,6.2497,6.2507,6.2549,6.2595,6.26,6.2574,6.2531,6.2567,6.2559,6.2519,6.2611,6.2569,6.2579,6.2631,6.2724,6.2733,6.2741,6.2821,6.284,6.2856,0,0,0,0,0,0,6.2523,6.2518,6.2493,6.2573,6.2585,6.2582,6.2626,6.2595,6.2618,6.2609,6.2574,6.2576,6.2644,6.2644,6.2597,6.272,6.266,6.2671,6.2718,6.2736,6.275,6.2748,6.2525,0,0,0,0,0,6.2551,6.259,6.2583,6.2654,6.2661,6.2643,6.2662,6.264,6.2651,6.2655,6.2652,6.2663,6.2694,6.2715,6.2743,6.2828,6.2826,6.2868,6.2883,6.2895,6.2904,6.2948,6.2966,6.2772,6.2772,6.2772,0,0,6.2607,6.2609,6.2636,6.267,6.2677,6.2717,6.2647,6.2693,6.2721,6.2662,6.2721,6.2719,6.2728,6.2802,6.2834,6.2804,6.2957,6.2905,6.2915,6.2917,6.2958,6.2976,6.2993,6.2778,6.2777,6.2776,0,0,6.2731,6.2737,6.2796,6.2805,6.2816,6.2803,6.2818,6.282,6.2816,6.2875,6.2831,6.2864,6.2919,6.2927,6.2939,6.3066,6.303,6.3076,6.3151,6.3194,6.3209,6.3223,6.3267,6.3283,6.3085,6.3086,6.3086,0,6.2799,6.2858,6.283,6.2879,6.2894,6.2844,6.2902,6.2912,6.2931,6.2943,6.2909,6.2976,6.2979,6.3054,6.3085,6.3096,6.3111,6.3075,6.321,6.3223,6.3235,6.3276,6.3293,6.3091,6.309,6.309,6.3089,0,6.2941,6.2983,6.303,6.3051,6.3072,6.3126,6.3104,6.3129,6.3106,6.3097,6.3157,6.3159,6.3186,6.3202,6.318,6.3274,6.3254,6.3216,6.3154,6.3259,6.3298,6.3313,6.3099,6.3097,6.3095,6.3094,0,0,6.3116,6.3122,6.3139,6.3148,6.3157,6.3188,6.3238,6.3266,6.3287,6.3303,6.3343,6.3391,6.3356,6.3369,6.3347,6.3385,6.3484,6.3341,6.3341,6.3367,6.3586,6.3614,6.3633,6.3461,6.3464,6.3466,6.3585,0,6.3236,6.3324,6.33,6.3388,6.3425,6.3377,6.3421,6.3431,6.3424,6.3453,6.3444,6.3479,6.343,6.3437,6.3473,6.3464,6.3527,6.3456,6.3497,6.3499,6.3495,6.3653,6.3684,6.3796,6.36,6.3602,6.3604,0,6.3388,6.3411,6.3502,6.3504,6.3519,6.3559,6.3582,6.3612,6.3622,6.3613,6.3629,6.3599,6.3647,6.3587,6.3653,6.3605,6.362,6.3619,6.3622,6.3624,6.3557,6.3658,6.3831,6.3847,6.3628,6.3626,6.3624,0,6.3505,6.3558,6.3619,6.3628,6.3633,6.3662,6.3665,6.3671,6.3689,6.3709,6.372,6.3746,6.3759,6.3779,6.3756,6.3715,6.3825,6.3763,6.3819,6.382,6.3843,6.3842,6.402,6.3856,6.3855,6.3855,6.3855,0,6.3642,6.3699,6.3672,6.3709,6.3772,6.3743,6.3806,6.3803,6.3809,6.3844,6.3805,6.3838,6.3807,6.3838,6.3821,6.3877,6.3884,6.3878,6.3872,6.3881,6.3881,6.3889,6.3881,6.3859,6.3858,6.3858,6.3857,0,6.3782,6.3766,6.383,6.3829,6.383,6.3876,6.3875,6.3909,6.3899,6.3944,6.3953,6.3937,6.3971,6.3951,6.3985,6.3974,6.4047,6.4032,6.4044,6.404,6.4096,6.4091,6.4284,6.4307,6.413,6.4132,6.4133,0,6.387,6.3913,6.3917,6.3938,6.3944,6.3979,6.3997,6.3971,6.3991,6.4006,6.4038,6.4069,6.4092,6.4148,6.4139,6.4165,6.4149,6.4215,6.4152,6.4159,6.4148,6.4146,6.4149,6.4227,6.4229,6.4231,6.4232,0,6.4026,6.4016,6.4045,6.4071,6.4094,6.4113,6.4129,6.4148,6.4121,6.4146,6.4181,6.4199,6.4235,6.4265,6.4288,6.4289,6.4256,6.4252,6.4266,6.4275,6.428,6.4277,6.4077,6.4248,6.4246,6.4245,6.4244,6.4243,6.4142,6.4178,6.4187,6.422,6.4229,6.4244,6.4276,6.427,6.4299,6.4326,6.4309,6.4349,6.4357,6.4383,6.439,6.442,6.4393,6.4414,6.4419,6.4424,6.4432,6.4276,6.4424,6.4424,6.4423,6.4423,6.4423,0,6.4296,6.4299,6.433,6.4353,6.4379,6.4347,6.4362,6.4385,6.4422,6.4432,6.4456,6.4496,6.4525,6.4519,6.4545,6.4571,6.4556,6.4579,6.4576,6.4577,6.4455,6.4439,6.459,6.459,6.459,6.459,6.459,6.459,6.4379,6.4437,6.4429,6.4491,6.4493,6.4534,6.4545,6.4558,6.4567,6.4613,6.4638,6.4633,6.4637,6.4663,6.4688,6.4685,6.4696,6.4724,6.4716,6.4602,6.4585,6.4569,6.4555,6.4727,6.4727,6.4835,6.4836,6.4837]}]]